Location: Kensington
(37.9105°N, 122.2803°W)
Time: 05:20:58
(UTC+00:00)

Daily predictions for brighter satellites

Satellite Brightness Start Highest point End
(mag) Time Altitude Azimuth Time Altitude Azimuth Time Altitude Azimuth
CZ-4C R/B 4.1 01:06:24 10° N 01:11:41 21° NE 01:17:31 10° E
ATLAS CENTAUR R/B 3.8 01:01:19 10° SW 01:14:38 75° NW 01:19:46 10° NE
H-2A R/B 3.0 01:11:40 10° ESE 01:15:51 25° ENE 01:19:56 10° NNE
COSMO-SKYMED 1 4.1 01:13:50 10° NE 01:16:42 17° E 01:19:34 10° SE
Meteor PRIRODA 3.6 01:14:03 10° SSE 01:17:41 88° WSW 01:21:19 10° NNW
Cosmos 1092 Rocket 4.3 01:12:35 10° N 01:18:41 46° ENE 01:24:43 10° SSE
Cosmos 1656 3.7 01:15:16 10° NNW 01:20:51 86° ENE 01:26:29 10° SSE
FengYun 1-2 T 4.2 01:17:19 10° SSE 01:22:53 73° ENE 01:28:26 10° N
Cosmos 1763 Rocket 3.8 01:20:03 10° SSW 01:25:04 70° WNW 01:30:10 10° NNE
Cosmos 1602 4.2 01:24:23 10° N 01:28:01 39° E 01:31:40 10° SSE
Cosmos 841 Rocket 3.6 01:25:51 10° S 01:30:52 54° ESE 01:35:54 10° NNE
Cosmos 1782 3.1 01:27:21 10° SSE 01:31:10 45° E 01:34:59 10° NNE
ISS -1.5 01:32:05 10° N 01:33:37 12° NNE 01:35:03 10° NE
Cosmos 1697 Rocket 2.8 01:28:15 10° NNW 01:33:44 53° ENE 01:39:12 10° SE
Okean O Rocket 2.9 01:32:04 10° ESE 01:35:10 19° ENE 01:38:17 10° NNE
Cosmos 1151 Rocket 3.9 01:33:50 10° SSE 01:37:31 28° E 01:41:14 10° NNE
Cosmos 1980 Rocket 3.0 01:32:43 10° N 01:37:37 29° ENE 01:42:29 10° ESE
Cosmos 2369 4.2 01:32:45 10° N 01:38:05 38° ENE 01:43:20 10° SE
Cosmos 1937 Rocket 3.7 01:33:41 10° N 01:38:50 48° ENE 01:43:56 10° SE
Cosmos 1743 Rocket 3.6 01:35:57 10° N 01:40:18 82° W 01:44:37 10° S
NOAA 6 4.0 01:36:59 10° SSE 01:42:08 87° ENE 01:47:17 10° NNW
Cosmos 2279 Rocket 4.4 01:36:28 10° SSE 01:42:12 41° E 01:47:56 10° NNE
CZ-2D R/B 3.4 01:41:50 10° SSE 01:45:31 47° ENE 01:49:13 10° N
Meteor 1-25 Rocket 4.2 01:40:05 10° N 01:45:40 86° E 01:51:19 10° S
Cosmos 1340 Rocket 3.9 01:42:34 10° NNW 01:46:31 50° W 01:50:27 10° S
Cosmos 990 Rocket 4.3 01:41:37 10° NNW 01:46:48 73° WSW 01:51:54 10° S
Cosmos 2082 Rocket 2.2 01:41:41 10° S 01:47:19 67° ESE 01:52:56 10° NNE
SL-16 R/B 4.1 01:46:47 10° NE 01:46:59 10° NE 01:46:59 10° NE
CZ-2C R/B 3.3 01:48:20 10° SSW 01:51:13 18° SSE 01:53:47 11° ESE
Cosmos 1666 Rocket 4.2 01:47:43 10° NNE 01:51:42 32° ENE 01:55:39 10° SE
CORIOLIS 4.2 01:46:30 10° SSE 01:51:53 87° WSW 01:57:20 10° NNW
Cosmos 372 Rocket 4.4 01:47:06 10° N 01:52:01 39° ENE 01:56:54 10° SE
Cosmos 1328 Rocket 4.4 01:49:02 10° SSE 01:52:54 30° E 01:56:25 12° NNE
CZ-4B DEB 4.2 01:48:34 10° SSE 01:54:05 83° ENE 01:59:37 10° NNW
Meteor 2-21 4.4 01:49:49 10° N 01:55:53 69° E 02:01:53 10° SSE
Cosmos 1634 Rocket 4.0 01:51:50 10° S 01:58:10 90° NNW 02:04:31 10° N
Cosmos 1500 3.0 01:57:03 10° N 02:00:46 65° E 02:04:26 10° SSE
Cosmos 2278 4.3 01:57:14 10° N 02:02:22 33° ENE 02:07:28 10° ESE
SKYMED 2 3.6 02:00:42 10° NNE 02:05:00 61° E 02:09:17 10° S
Landsat 5 3.8 02:03:12 17° NE 02:05:59 40° E 02:09:43 10° S
COSMOS 2406 4.1 02:00:36 10° SW 02:06:10 50° WNW 02:11:45 10° NNE
ARGOS 3.4 02:03:31 10° SE 02:08:40 47° ENE 02:13:49 10° N
Cosmos 2026 Rocket 4.0 02:03:43 10° N 02:09:51 83° W 02:15:54 10° S
Cosmos 858 Rocket 4.5 02:05:38 10° NNW 02:10:57 87° ENE 02:16:12 10° SSE
Cosmos 1833 Rocket 4.2 02:05:54 10° SW 02:10:59 34° WNW 02:16:06 10° N
SL-08 RB Rocket 4.4 02:07:39 10° SE 02:11:46 32° ENE 02:15:51 10° N
PSLV R/B 4.1 02:08:27 10° S 02:12:05 63° WSW 02:15:46 10° NNW
COSMOS 2455 3.3 02:07:38 10° SW 02:13:34 61° WNW 02:19:34 10° NNE
Meteor 2-6 Rocket 4.2 02:12:44 10° S 02:18:27 61° E 02:24:01 10° NNE
GPS 2-04 Rocket1 3.1 02:15:12 10° W 02:19:15 60° S 02:21:03 30° ESE
Cosmos 1570 Rocket 3.9 02:14:44 10° SSW 02:19:59 81° ESE 02:24:25 15° NNE
Sich 1 3.6 02:16:02 10° NNW 02:20:16 60° W 02:24:31 10° S
USA 229 DEB 4.2 02:13:31 10° NW 02:21:00 73° WSW 02:28:50 10° SSE
USA 229 4.2 02:13:37 10° NW 02:21:05 73° WSW 02:28:56 10° SSE
PAYLOAD B 4.5 02:16:31 10° S 02:22:06 73° WSW 02:27:43 10° NNW
DEBRIS 3.1 02:20:31 10° SSW 02:22:37 36° SE 02:22:37 36° SE
MOS 1-B Rocket 4.4 02:16:59 10° N 02:22:58 72° WNW 02:29:50 10° SSW
Cosmos 1655 Rocket 4.4 02:18:24 10° N 02:24:23 40° ENE 02:30:17 10° SE
CZ-4C R/B 3.2 02:25:26 45° SE 02:25:26 45° SE 02:28:16 10° S
Cosmos 1814 Rocket 4.1 02:21:27 10° SSW 02:26:42 76° WNW 02:31:26 13° NNE
CZ-4B R/B 3.1 02:22:00 10° SSE 02:27:28 87° ENE 02:32:51 10° NNW
Cosmos 2180 Rocket 4.4 02:23:00 10° S 02:29:19 77° E 02:35:38 10° N
deb Chang Zheng 4 3.4 02:25:37 10° SSE 02:29:54 88° E 02:34:14 10° NNW
Cosmos 1666 2.4 02:26:38 10° N 02:30:21 82° E 02:34:02 10° S
Cosmos 1900 4.2 02:26:43 10° SSW 02:31:34 84° ESE 02:33:46 33° NNE
USA 234 3.3 02:25:41 10° SE 02:32:14 80° SW 02:38:48 10° NW
Cosmos 1515 Rocket 3.8 02:29:58 10° SSE 02:34:03 46° E 02:34:03 46° E
CZ-2C R/B 2.8 02:29:07 10° N 02:34:17 69° WNW 02:39:24 10° SSW
Meteor 1-10 Rocket 4.2 02:32:08 10° S 02:37:52 65° E 02:41:51 20° NNE
Meteor 2-8 Rocket 4.4 02:32:56 10° S 02:39:05 89° ESE 02:45:17 10° N
X-37B 2.8 02:36:52 10° SSW 02:37:48 16° S 02:37:48 16° S
Cosmos 1812 4.3 02:39:33 10° SSW 02:43:06 35° W 02:46:41 10° N
USA 276 3.8 02:42:28 10° WNW 02:45:15 30° SW 02:45:51 27° SSW
Feng Yun 1-1 Rocket 4.2 02:44:09 10° SSE 02:50:02 72° ENE 02:55:54 10° N
Cosmos 1867 4.5 02:47:46 10° S 02:51:22 32° SE 02:51:22 32° SE
COSMO-SKYMED 1 4.0 02:48:58 10° N 02:52:58 37° WNW 02:56:56 10° SW
Cosmos 2208 Rocket 4.4 02:47:52 10° SSW 02:53:11 64° WNW 02:56:36 23° N
H-2A R/B 3.6 02:50:18 10° SSW 02:55:04 36° W 02:59:45 10° NNW
APEX 4.0 02:50:56 10° SSW 02:54:07 45° S 02:54:07 45° S
Cosmos 921 Rocket 3.1 02:57:00 10° SSW 03:01:06 67° WNW 03:01:06 67° WNW
CZ-4C R/B 2.9 02:53:46 10° NNW 03:01:21 76° ENE 03:07:13 23° SE
Spot 2 4.3 02:57:31 10° SSE 03:02:36 79° ENE 03:07:45 10° N
Cosmos 1633 Rocket 4.1 03:00:07 10° NNW 03:04:16 44° W 03:08:25 10° SSW
USA 32 4.0 03:01:51 10° S 03:06:21 66° SSE 03:06:21 66° SSE
DMSP B5D1-3 4.4 03:10:07 88° NW 03:10:10 88° W 03:15:16 10° SSW
ISS -0.8 03:07:44 10° NW 03:08:02 12° NW 03:08:02 12° NW
Okean O Rocket 3.1 03:07:06 10° SSW 03:11:13 37° W 03:15:22 10° NNW
Cosmos 2322 Rocket 4.2 03:10:11 10° N 03:11:09 15° N 03:11:09 15° N
Cosmos 1980 Rocket 3.6 03:16:30 10° NW 03:21:38 36° WSW 03:26:43 10° S
CZ-2C R/B 3.6 03:26:23 10° WSW 03:27:57 21° SW 03:27:57 21° SW
SL-16 R/B 3.9 03:27:06 10° NNW 03:28:54 21° NNW 03:28:54 21° NNW
ATLAS 3B CENTAUR R/B 4.4 03:42:34 10° WSW 04:01:14 58° S 04:04:12 51° SSE
Cosmos 2369 Rocket 4.1 11:47:55 24° ESE 11:48:37 24° ESE 11:53:02 10° NE
